sat.trackr.live / text

‹ back to catalog

2025-226C

NORAD 65940 · 2025-226C

PAYLOAD ACTIVE UNKNOWN

§ Identity

Operator
Country
PRC
Launch date
2025-10-11
Launch site
YSLA
Launch vehicle
Mass (kg)
RCS (m²)

External: N2YO · Heavens-Above · Gunter

§ Orbital elements

Epoch: 2026-09-20T22:33:57.758112Z

Period
94.92 min
Inclination
97.6291°
Eccentricity
0.0013529
Mean motion
15.17112695 rev/d
Perigee alt
505.2 km
Apogee alt
523.9 km
Semi-major
6,892.7 km
B*
2.3013e-4
RAAN
344.5941°
Arg perigee
162.6984°
Mean anomaly
197.4713°
Rev number
5,219

§ Raw data

2025-226C1 65940U 25226C   26263.94025183  .00004502  00000+0  23013-3 0  99942 65940  97.6291 344.5941 0013529 162.6984 197.4713 15.17112695 52193

JSON: /api/v1/satellites/65940 · /tle

For live sub-satellite position, see the globe view (requires WebGL).

§ Visibility from observer

Set your observer location to see the next 7 days of passes ≥ 10°. The values pass through the URL so the page stays shareable.

No JS? Fill the form by hand. The geolocation button needs JavaScript.